Weather History for KMLP - November, 2012

Change the Weather History Date:

Saturday, November 3, 2012

  Actual Average (K3TH) Record (K3TH)
Temperature  
Mean Temperature 36 °F -  
Max Temperature 39 °F 44 °F 50 °F (1998)
Min Temperature 32 °F 31 °F 28 °F (1999)
Degree Days  
Heating Degree Days 30    
Moisture  
Dew Point 35 °F    
Average Humidity 98    
Maximum Humidity 100    
Minimum Humidity 75    
Precipitation  
Precipitation 0.21 in - - ()
Sea Level Pressure  
Sea Level Pressure 30.08 in    
Wind  
Wind Speed 6 mph (SW)    
Max Wind Speed 12 mph    
Max Gust Speed 22 mph    
Visibility 4 miles    
Events Fog , Rain , Snow    
Averages and records for this station are not official NWS values.
T = Trace of Precipitation, MM = Missing Value Source: NWS Daily Summary

Daily Weather History Graph

Daily Weather History Graph

Search for Another Location

Airport or City:

Trip Planner

Search our weather history database for the weather conditions in past years. The results will help you decide how hot, cold, wet, or windy it might be!

Date:

Astronomy

Nov. 03, 2012 Rise Set
Actual Time 7:30 AM PDT 5:21 PM PDT
Civil Twilight 6:57 AM PDT 5:53 PM PDT
Nautical Twilight 6:21 AM PDT 6:30 PM PDT
Astronomical Twilight 5:45 AM PDT 7:06 PM PDT
Moon 9:00 PM PDT (11/3) 11:44 AM PDT (11/3)
Length of Visible Light 10h 56m
Length of Day
9h 51m
Waning Gibbous, 79% of the Moon is Illuminated
Nov 3
Waning Gibbous
Nov 6
Last Quarter
Nov 13
New
Nov 20
First Quarter
Nov 28
Full

Hourly Weather History & Observations

Time (PDT) Temp. Windchill Dew Point Humidity Pressure Visibility Wind Dir Wind Speed Gust Speed Precip Events Conditions
12:53 AM 34.0 °F 28.0 °F 33.1 °F 96% 29.99 in 10.0 mi South 6.9 mph - N/A   Mostly Cloudy
1:53 AM 34.0 °F 29.8 °F 33.1 °F 96% 29.99 in 10.0 mi South 4.6 mph - N/A   Scattered Clouds
2:53 AM 34.0 °F 28.0 °F 33.1 °F 96% 29.98 in 10.0 mi South 6.9 mph - N/A   Overcast
3:53 AM 34.0 °F 27.2 °F 33.1 °F 96% 29.97 in 10.0 mi South 8.1 mph - N/A   Overcast
4:53 AM 34.0 °F 28.0 °F 33.1 °F 96% 29.97 in 10.0 mi South 6.9 mph - N/A   Overcast
5:27 AM 32.0 °F 25.6 °F 32.0 °F 100% 30.08 in 10.0 mi South 6.9 mph - N/A   Mostly Cloudy
5:39 AM 32.0 °F 26.4 °F 32.0 °F 100% 30.08 in 1.8 mi South 5.8 mph - N/A   Mostly Cloudy
5:53 AM 32.0 °F 27.5 °F 32.0 °F 100% 29.99 in 0.5 mi SSW 4.6 mph - N/A Fog Fog
6:12 AM 32.0 °F 25.6 °F 32.0 °F 100% 30.07 in 1.5 mi SSW 6.9 mph - N/A   Overcast
6:18 AM 32.0 °F 24.8 °F 32.0 °F 100% 30.08 in 3.0 mi SSW 8.1 mph - N/A   Overcast
6:53 AM 33.1 °F 26.1 °F 32.0 °F 96% 30.00 in 10.0 mi SSW 8.1 mph - N/A   Overcast
7:53 AM 34.0 °F 26.6 °F 30.9 °F 89% 30.00 in 10.0 mi SSW 9.2 mph - N/A   Clear
8:53 AM 37.0 °F 31.6 °F 30.9 °F 79% 29.99 in 10.0 mi SSW 6.9 mph - N/A   Overcast
9:49 AM 37.4 °F 32.8 °F 30.2 °F 75% 30.10 in 10.0 mi Variable 5.8 mph - 0.00 in Rain Light Rain
9:53 AM 37.0 °F 33.3 °F 32.0 °F 82% 29.99 in 10.0 mi Variable 4.6 mph - 0.00 in   Overcast
10:53 AM 39.0 °F 35.7 °F 32.0 °F 76% 30.00 in 10.0 mi Variable 4.6 mph - N/A   Overcast
11:50 AM 35.6 °F 31.7 °F 33.8 °F 93% 30.11 in 9.0 mi Variable 4.6 mph - 0.01 in Rain Light Rain
11:53 AM 36.0 °F - 34.0 °F 93% 30.01 in 10.0 mi Calm Calm - 0.01 in Rain Light Rain
12:40 PM 33.8 °F 29.6 °F 33.8 °F 100% 30.10 in 2.5 mi Variable 4.6 mph - 0.03 in Snow Light Snow
12:49 PM 33.8 °F 28.6 °F 33.8 °F 100% 30.10 in 1.5 mi Variable 5.8 mph - 0.06 in Snow Light Snow
12:53 PM 34.0 °F 31.0 °F 33.1 °F 96% 30.01 in 2.0 mi Variable 3.5 mph - 0.07 in Snow Light Snow
1:06 PM 33.8 °F 30.8 °F 33.8 °F 100% 30.10 in 1.2 mi Variable 3.5 mph - 0.01 in Rain Light Rain
1:14 PM 33.8 °F 29.6 °F 33.8 °F 100% 30.10 in 0.8 mi Variable 4.6 mph - 0.01 in   Overcast
1:17 PM 33.8 °F 30.8 °F 33.8 °F 100% 30.10 in 1.5 mi Variable 3.5 mph - 0.01 in   Overcast
1:19 PM 33.8 °F 30.8 °F 33.8 °F 100% 30.10 in 4.0 mi Variable 3.5 mph - 0.01 in   Overcast
1:33 PM 33.8 °F 29.6 °F 33.8 °F 100% 30.09 in 1.5 mi Variable 4.6 mph - 0.01 in   Overcast
1:35 PM 33.8 °F 30.8 °F 33.8 °F 100% 30.09 in 0.8 mi Variable 3.5 mph - 0.01 in   Overcast
1:44 PM 35.6 °F 32.8 °F 35.6 °F 100% 30.09 in 0.2 mi Variable 3.5 mph - 0.01 in Fog , Rain Light Rain
1:53 PM 35.1 °F 32.2 °F 35.1 °F 100% 29.99 in 0.2 mi Variable 3.5 mph - 0.02 in Fog , Rain Light Rain
2:53 PM 36.0 °F 32.1 °F 36.0 °F 100% 29.99 in 0.2 mi Variable 4.6 mph - 0.02 in Fog , Rain Light Rain
3:53 PM 37.0 °F 30.4 °F 37.0 °F 100% 30.00 in 0.2 mi WSW 9.2 mph - 0.02 in Fog , Rain Light Rain
4:53 PM 37.9 °F 32.7 °F 37.9 °F 100% 30.01 in 0.2 mi Variable 6.9 mph - 0.01 in Fog Fog
5:53 PM 37.9 °F 32.7 °F 37.9 °F 100% 30.03 in 0.2 mi Variable 6.9 mph - 0.01 in Fog Fog
6:03 PM 37.4 °F 30.8 °F 37.4 °F 100% 30.12 in 0.2 mi West 9.2 mph - 0.00 in Fog , Rain Light Rain
6:53 PM 37.9 °F 32.7 °F 37.9 °F 100% 30.04 in 0.2 mi Variable 6.9 mph - 0.00 in Fog Fog
7:01 PM 37.4 °F 33.8 °F 37.4 °F 100% 30.14 in 0.5 mi Variable 4.6 mph - N/A Fog Fog
7:13 PM 37.4 °F 33.8 °F 37.4 °F 100% 30.14 in 1.0 mi Variable 4.6 mph - N/A   Mist
7:26 PM 37.4 °F 32.8 °F 37.4 °F 100% 30.15 in 2.0 mi Variable 5.8 mph - N/A   Overcast
7:34 PM 37.4 °F 34.9 °F 37.4 °F 100% 30.15 in 1.8 mi Variable 3.5 mph - N/A   Overcast
7:39 PM 37.4 °F 29.8 °F 37.4 °F 100% 30.15 in 3.0 mi West 11.5 mph 21.9 mph N/A   Overcast
7:53 PM 37.9 °F 32.1 °F 37.9 °F 100% 30.04 in 3.0 mi West 8.1 mph - N/A   Overcast
8:47 PM 37.4 °F 30.8 °F 37.4 °F 100% 30.15 in 1.8 mi WSW 9.2 mph - N/A   Overcast
8:51 PM 37.4 °F 34.9 °F 37.4 °F 100% 30.15 in 0.8 mi Variable 3.5 mph - N/A   Overcast
8:53 PM 37.9 °F 32.7 °F 37.9 °F 100% 30.04 in 0.8 mi Variable 6.9 mph - N/A   Overcast
9:08 PM 37.4 °F 32.1 °F 37.4 °F 100% 30.15 in 1.5 mi Variable 6.9 mph - N/A   Overcast
9:12 PM 37.4 °F 32.8 °F 37.4 °F 100% 30.16 in 3.0 mi Variable 5.8 mph - N/A   Overcast
9:53 PM 37.9 °F 32.7 °F 37.9 °F 100% 30.04 in 2.5 mi Variable 6.9 mph - 0.00 in Rain Light Rain
10:05 PM 37.4 °F 31.4 °F 37.4 °F 100% 30.15 in 1.2 mi SW 8.1 mph - 0.01 in Rain Light Rain
10:13 PM 37.4 °F 31.4 °F 37.4 °F 100% 30.16 in 0.8 mi WSW 8.1 mph 16.1 mph 0.01 in Rain Light Rain
10:17 PM 37.4 °F 32.1 °F 37.4 °F 100% 30.16 in 1.8 mi Variable 6.9 mph 16.1 mph 0.01 in Rain Light Rain
10:23 PM 37.4 °F 30.3 °F 37.4 °F 100% 30.15 in 0.8 mi SW 10.4 mph 20.7 mph 0.01 in Rain Light Rain
10:41 PM 37.4 °F 32.8 °F 37.4 °F 100% 30.16 in 1.5 mi Variable 5.8 mph - 0.02 in Rain Light Rain
10:50 PM 37.4 °F 32.8 °F 37.4 °F 100% 30.16 in 0.8 mi Variable 5.8 mph - 0.03 in Rain Light Rain
10:53 PM 37.9 °F 33.5 °F 37.9 °F 100% 30.04 in 1.0 mi Variable 5.8 mph - 0.03 in Rain Light Rain
11:04 PM 37.4 °F 30.8 °F 37.4 °F 100% 30.16 in 2.0 mi West 9.2 mph - 0.01 in Rain Light Rain
11:13 PM 37.4 °F 32.1 °F 37.4 °F 100% 30.17 in 3.0 mi Variable 6.9 mph 17.3 mph 0.01 in Rain Light Rain
11:48 PM 37.4 °F 31.4 °F 37.4 °F 100% 30.17 in 10.0 mi WSW 8.1 mph - 0.02 in Rain Light Rain
11:53 PM 37.9 °F 32.1 °F 37.9 °F 100% 30.06 in 10.0 mi West 8.1 mph - 0.02 in Rain Light Rain